FW0837 Weather Reports


Display with metric or nautical units.
time (UTC)temp
F
wind
direction
speed
MPH
gust
MPH
rain 1hr
in
rain 24hr
in
rain mn
in
humidity
%
barometer
mb
20201031161633 39 246 1.0 3.0 0.00 0.01 0.00 70 1034.5
20201031160207 38 265 1.0 3.0 0.00 0.01 0.00 69 1034.8
20201031154653 38 272 1.0 6.0 0.00 0.04 0.00 66 1034.8
20201031153224 37 297 0.0 2.0 0.00 0.04 0.00 70 1034.6
20201031151551 34 293 1.0 3.0 0.00 0.04 0.00 73 1034.6
20201031150154 33 297 0.0 2.0 0.00 0.04 0.00 78 1034.5
20201031144554 33 297 0.0 3.0 0.00 0.07 0.00 81 1034.5
20201031143040 32 297 0.0 4.0 0.00 0.07 0.00 81 1034.1
20201031141526 32 291 0.0 2.0 0.00 0.07 0.00 81 1034.0
20201031140108 31 289 1.0 3.0 0.00 0.07 0.00 85 1034.0
20201031134526 29 287 1.0 5.0 0.00 0.11 0.00 87 1034.0
20201031133037 28 295 1.0 4.0 0.00 0.11 0.00 88 1033.8
20201031131532 26 291 1.0 3.0 0.00 0.11 0.00 89 1033.7
20201031130316 25 291 1.0 3.0 0.00 0.11 0.00 90 1033.6
20201031124643 24 291 0.0 2.0 0.00 0.13 0.00 90 1033.1
20201031123323 23 291 1.0 2.0 0.00 0.13 0.00 91 1033.0
20201031121636 21 291 1.0 2.0 0.00 0.13 0.00 90 1032.9
20201031120224 20 291 0.0 2.0 0.00 0.13 0.00 90 1032.4
20201031114625 19 291 0.0 2.0 0.00 0.13 0.00 89 1032.1
20201031113135 20 291 0.0 2.0 0.00 0.13 0.00 89 1031.8
20201031111637 20 291 0.0 2.0 0.00 0.13 0.00 89 1031.4
20201031110118 21 291 1.0 2.0 0.00 0.13 0.00 89 1031.0
20201031104632 20 291 0.0 1.0 0.00 0.13 0.00 89 1030.6
20201031103040 21 291 1.0 2.0 0.00 0.13 0.00 89 1030.7
20201031101625 22 292 1.0 3.0 0.00 0.13 0.00 89 1030.4
20201031100027 22 290 1.0 4.0 0.00 0.13 0.00 90 1029.9
20201031094545 22 291 2.0 4.0 0.00 0.13 0.00 90 1029.6
20201031093027 22 298 1.0 4.0 0.00 0.13 0.00 90 1029.3
20201031091526 22 280 1.0 5.0 0.00 0.13 0.00 91 1029.2
20201031090042 22 293 1.0 3.0 0.00 0.13 0.00 90 1029.1
20201031084528 22 293 0.0 3.0 0.00 0.13 0.00 91 1029.0
20201031083025 21 280 1.0 3.0 0.00 0.13 0.00 91 1028.8
20201031081540 22 266 0.0 2.0 0.00 0.13 0.00 91 1028.9
20201031080028 22 266 0.0 2.0 0.00 0.13 0.00 91 1028.5
20201031074519 21 266 0.0 2.0 0.00 0.14 0.00 91 1028.4
20201031073037 21 266 1.0 2.0 0.00 0.14 0.00 91 1028.2
20201031071746 21 266 1.0 3.0 0.00 0.14 0.00 91 1028.0
20201031070141 22 266 0.0 1.0 0.00 0.14 0.00 90 1027.9
20201031064737 22 266 1.0 2.0 0.00 0.15 0.00 91 1027.6
20201031063208 22 266 1.0 2.0 0.00 0.15 0.00 91 1027.5
20201031061827 21 266 0.0 1.0 0.00 0.15 0.00 90 1027.3
20201031060139 21 266 0.0 1.0 0.00 0.15 0.00 90 1027.1
20201031054721 22 266 1.0 2.0 0.00 0.16 0.00 90 1026.8
20201031053126 22 266 1.0 2.0 0.00 0.16 0.00 90 1026.7
20201031051621 22 274 1.0 2.0 0.00 0.16 0.00 91 1026.3
20201031050201 21 276 0.0 1.0 0.00 0.16 0.00 90 1026.1
20201031044559 22 276 0.0 2.0 0.00 0.18 0.00 90 1025.9
20201031043057 22 276 0.0 1.0 0.00 0.18 0.00 90 1025.5
20201031041641 22 276 0.0 2.0 0.00 0.18 0.00 90 1025.1
20201031040058 22 276 0.0 2.0 0.00 0.18 0.00 90 1024.8
20201031034554 22 276 0.0 1.0 0.00 0.20 0.18 90 1024.5
20201031033054 22 276 1.0 2.0 0.00 0.20 0.18 90 1024.6
20201031031710 22 276 0.0 1.0 0.00 0.20 0.18 89 1024.2
20201031030049 23 276 0.0 1.0 0.00 0.20 0.18 89 1024.0
20201031024607 24 276 0.0 2.0 0.00 0.21 0.18 89 1023.8
20201031023108 24 277 1.0 3.0 0.00 0.21 0.18 89 1023.6
20201031021550 24 274 1.0 3.0 0.00 0.21 0.18 90 1023.3
20201031020108 24 281 1.0 4.0 0.00 0.21 0.18 90 1023.1
20201031014521 24 284 1.0 2.0 0.00 0.24 0.18 89 1022.9
20201031013028 24 282 0.0 2.0 0.00 0.24 0.18 89 1022.5
20201031011524 25 283 0.0 2.0 0.00 0.24 0.18 90 1022.5
20201031010020 25 285 1.0 3.0 0.00 0.24 0.18 89 1022.1
20201031004547 25 287 1.0 2.0 0.00 0.33 0.18 89 1021.8
20201031003156 26 287 0.0 2.0 0.00 0.33 0.18 88 1021.3
20201031001724 26 287 0.0 3.0 0.00 0.33 0.18 88 1021.1
20201031000333 27 291 0.0 2.0 0.00 0.33 0.18 87 1020.7
20201030234615 28 289 0.0 3.0 0.00 0.42 0.18 88 1020.3
20201030233115 28 288 1.0 3.0 0.00 0.42 0.18 88 1020.2
20201030230109 28 283 1.0 3.0 0.00 0.42 0.18 88 1019.4
20201030224637 29 293 0.0 1.0 0.00 0.47 0.18 88 1018.9
20201030223102 29 291 0.0 2.0 0.00 0.47 0.18 88 1018.6
20201030221603 29 271 0.0 2.0 0.00 0.47 0.18 87 1018.4
20201030220134 31 271 0.0 2.0 0.00 0.47 0.18 87 1018.2
20201030214612 31 270 0.0 3.0 0.00 0.50 0.18 87 1018.0
20201030213210 32 319 1.0 2.0 0.00 0.50 0.18 86 1017.6
20201030211615 32 319 0.0 2.0 0.00 0.50 0.18 86 1017.2
20201030210122 33 321 0.0 4.0 0.00 0.50 0.18 86 1017.2
20201030204600 33 332 0.0 5.0 0.00 0.55 0.18 85 1017.0
20201030203116 33 297 0.0 3.0 0.00 0.55 0.18 86 1016.7
20201030201633 32 26 0.0 4.0 0.00 0.55 0.18 86 1016.5
20201030200105 32 300 1.0 4.0 0.00 0.55 0.18 86 1016.4
20201030194530 32 310 2.0 4.0 0.00 0.61 0.18 86 1016.3
20201030193052 31 26 1.0 4.0 0.00 0.61 0.18 84 1015.8
20201030191551 31 102 3.0 8.0 0.00 0.61 0.18 85 1015.9
20201030190056 30 326 2.0 10.0 0.00 0.61 0.18 87 1015.6
20201030184614 31 354 3.0 11.0 0.00 0.65 0.18 89 1015.5
20201030183031 30 296 1.0 4.0 0.00 0.65 0.18 90 1015.4
20201030181546 30 310 3.0 5.0 0.00 0.65 0.18 90 1015.5
20201030180049 30 291 0.0 3.0 0.00 0.65 0.18 90 1015.1
20201030174521 30 29 0.0 8.0 0.00 0.69 0.18 90 1014.9
20201030173041 30 4 1.0 8.0 0.00 0.69 0.18 91 1015.0
20201030171521 30 293 4.0 10.0 0.01 0.69 0.18 91 1014.8
20201030170035 29 334 1.0 9.0 0.01 0.69 0.18 91 1014.5
20201030164523 29 333 2.0 8.0 0.02 0.69 0.18 91 1014.4
20201030163149 29 67 2.0 12.0 0.02 0.69 0.18 91 1014.4